File downld02.txt from Nest Egg
Temp Hi Low Out Dew Wind Wind Wind Hi Hi Wind Heat THW Rain Heat Cool In In In In Wind Wind ISS Arc.
Date Time Out Temp Temp Hum Pt. Speed Dir Run Speed Dir Chill Index Index Bar Rain Rate D-D D-D Temp Hum Dew Heat Samp Tx Recept Int.
-----------------------------------------------------------------------------------------------------------------------------------------------------------------------------------------------
5/05/26 12:30a 55.1 55.5 55.1 69 45.1 1.0 SE 0.50 5.0 SSE 55.1 54.2 54.2 29.792 0.00 0.00 0.206 0.000 74.3 35 44.9 72.8 699 1 100.0 30
5/05/26 1:00a 55.3 55.5 55.0 72 46.4 6.0 SSE 3.00 12.0 SSE 54.0 54.6 53.3 29.786 0.00 0.00 0.202 0.000 74.0 35 44.6 72.5 701 1 100.0 30
5/05/26 1:30a 54.6 55.3 54.5 75 46.8 9.0 SSE 4.50 14.0 SSE 51.3 54.0 50.7 29.785 0.00 0.00 0.217 0.000 73.5 36 44.9 72.0 699 1 100.0 30
5/05/26 2:00a 52.7 54.6 52.7 76 45.3 3.0 SSE 1.50 9.0 SE 52.7 52.3 52.3 29.776 0.00 0.00 0.256 0.000 73.2 36 44.6 71.6 700 1 100.0 30
5/05/26 2:30a 53.7 53.7 52.3 72 44.9 1.0 SE 0.50 7.0 W 53.7 53.0 53.0 29.771 0.00 0.00 0.235 0.000 72.9 36 44.4 71.2 699 1 100.0 30
5/05/26 3:00a 54.9 55.0 53.7 71 45.7 1.0 SE 0.50 7.0 SSE 54.9 54.1 54.1 29.768 0.00 0.00 0.210 0.000 72.8 36 44.3 71.1 700 1 100.0 30
5/05/26 3:30a 55.0 55.0 54.8 70 45.4 1.0 SE 0.50 6.0 W 55.0 54.2 54.2 29.764 0.00 0.00 0.208 0.000 72.5 36 44.0 70.6 701 1 100.0 30
5/05/26 4:00a 55.2 55.2 54.9 71 46.0 1.0 S 0.50 5.0 SSE 55.2 54.4 54.4 29.766 0.00 0.00 0.204 0.000 72.4 36 43.9 70.5 698 1 100.0 30
5/05/26 4:30a 54.8 55.2 54.8 72 45.9 1.0 W 0.50 6.0 W 54.8 54.1 54.1 29.768 0.00 0.00 0.213 0.000 72.1 36 43.7 70.0 700 1 100.0 30
5/05/26 5:00a 54.3 54.8 54.3 73 45.8 1.0 SSE 0.50 6.0 SSE 54.3 53.6 53.6 29.758 0.00 0.00 0.223 0.000 72.0 36 43.6 69.9 700 1 100.0 30
5/05/26 5:30a 53.6 54.3 53.6 74 45.5 1.0 WNW 0.50 3.0 ESE 53.6 53.0 53.0 29.764 0.00 0.00 0.238 0.000 71.8 36 43.4 69.6 700 1 100.0 30
5/05/26 6:00a 52.5 53.6 52.5 77 45.5 0.0 ESE 0.00 4.0 SE 52.5 52.1 52.1 29.762 0.00 0.00 0.260 0.000 71.7 36 43.3 69.5 700 1 100.0 30
5/05/26 6:30a 53.6 53.6 52.5 78 46.9 1.0 SE 0.50 7.0 SSE 53.6 53.2 53.2 29.778 0.00 0.00 0.238 0.000 72.4 35 43.2 70.4 702 1 100.0 30
5/05/26 7:00a 55.9 55.9 53.6 75 48.1 3.0 SSE 1.50 9.0 SSE 55.9 55.3 55.3 29.784 0.00 0.00 0.190 0.000 72.7 35 43.5 70.8 702 1 100.0 30
5/05/26 7:30a 56.4 56.5 55.9 74 48.2 3.0 SSE 1.50 11.0 SE 56.4 55.7 55.7 29.776 0.00 0.00 0.179 0.000 73.0 35 43.7 71.3 700 1 100.0 30
5/05/26 8:00a 57.6 57.6 56.3 72 48.6 3.0 SE 1.50 9.0 SSE 57.6 56.8 56.8 29.772 0.00 0.00 0.154 0.000 73.2 35 43.9 71.5 701 1 100.0 30
5/05/26 8:30a 59.3 59.3 57.6 70 49.5 4.0 SSE 2.00 10.0 SSE 59.3 58.4 58.4 29.770 0.00 0.00 0.119 0.000 73.9 35 44.5 72.4 698 1 100.0 30
5/05/26 9:00a 60.6 60.6 59.3 69 50.4 5.0 SE 2.50 10.0 SSE 60.6 59.8 59.8 29.771 0.00 0.00 0.092 0.000 74.8 35 45.3 73.4 699 1 100.0 30
5/05/26 9:30a 60.6 60.7 60.2 71 51.1 6.0 SSE 3.00 12.0 SSE 60.3 59.9 59.6 29.772 0.00 0.00 0.092 0.000 75.5 35 45.9 74.1 702 1 100.0 30
5/05/26 10:00a 64.2 64.2 60.7 65 52.2 5.0 SSE 2.50 11.0 SSE 64.2 63.5 63.5 29.768 0.00 0.00 0.017 0.000 76.1 35 46.5 74.7 699 1 100.0 30
5/05/26 10:30a 68.5 68.5 64.2 57 52.7 5.0 SSE 2.50 11.0 SSE 68.5 67.8 67.8 29.752 0.00 0.00 0.000 0.073 76.6 36 47.6 75.2 699 1 100.0 30
5/05/26 11:00a 71.9 72.0 68.6 54 54.3 5.0 SSE 2.50 14.0 SE 71.9 71.3 71.3 29.743 0.00 0.00 0.000 0.144 77.4 35 47.6 75.9 696 1 100.0 30
5/05/26 11:30a 73.6 73.6 71.6 51 54.4 5.0 SE 2.50 16.0 SSE 73.6 73.3 73.3 29.728 0.00 0.00 0.000 0.179 78.3 35 48.4 76.7 700 1 100.0 30
5/05/26 12:00p 73.9 74.7 73.6 52 55.2 6.0 SE 3.00 14.0 SSE 73.9 73.8 73.8 29.707 0.00 0.00 0.000 0.185 81.6 34 50.5 79.8 701 1 100.0 30
5/05/26 12:30p 74.4 75.7 73.7 51 55.1 7.0 SE 3.50 22.0 SSE 74.4 74.3 74.3 29.692 0.00 0.00 0.000 0.196 84.0 32 51.0 82.0 701 1 100.0 30
5/05/26 1:00p 76.9 76.9 73.0 46 54.5 8.0 SE 4.00 24.0 SSE 76.4 76.4 75.9 29.680 0.00 0.00 0.000 0.248 80.9 34 49.9 79.1 701 1 100.0 30
5/05/26 1:30p 77.5 78.2 77.0 46 55.1 6.0 SE 3.00 17.0 SSE 77.5 77.0 77.0 29.683 0.00 0.00 0.000 0.260 80.0 35 49.9 78.3 703 1 100.0 30
5/05/26 2:00p 77.7 78.4 77.4 46 55.3 6.0 SE 3.00 19.0 SSE 77.7 77.2 77.2 29.661 0.00 0.00 0.000 0.265 79.8 36 50.5 78.2 700 1 100.0 30
5/05/26 2:30p 77.7 77.9 76.6 46 55.3 6.0 SE 3.00 21.0 SSE 77.7 77.2 77.2 29.650 0.00 0.00 0.000 0.265 79.7 36 50.4 78.1 703 1 100.0 30
5/05/26 3:00p 79.2 79.2 77.7 38 51.4 5.0 SE 2.50 16.0 SSE 79.2 77.8 77.8 29.639 0.00 0.00 0.000 0.296 79.9 37 51.3 78.4 701 1 100.0 30
5/05/26 3:30p 79.7 80.3 79.2 38 51.8 5.0 SSE 2.50 17.0 SSE 79.7 78.3 78.3 29.632 0.00 0.00 0.000 0.306 80.0 36 50.6 78.4 700 1 100.0 30
5/05/26 4:00p 79.3 79.8 79.2 39 52.2 5.0 SE 2.50 22.0 SE 79.3 78.0 78.0 29.620 0.00 0.00 0.000 0.298 80.0 36 50.6 78.4 701 1 100.0 30
5/05/26 4:30p 79.7 79.8 79.1 37 51.1 4.0 SE 2.00 15.0 SE 79.7 78.2 78.2 29.621 0.00 0.00 0.000 0.306 79.9 36 50.6 78.3 697 1 100.0 30
5/05/26 5:00p 79.5 80.1 79.4 39 52.4 4.0 SE 2.00 16.0 S 79.5 78.2 78.2 29.630 0.00 0.00 0.000 0.302 80.0 37 51.4 78.5 700 1 100.0 30
5/05/26 5:30p 75.8 79.4 75.8 50 55.8 5.0 SE 2.50 14.0 SSE 75.8 75.7 75.7 29.635 0.00 0.00 0.000 0.225 80.0 37 51.4 78.5 702 1 100.0 30
5/05/26 6:00p 74.2 75.8 74.2 53 56.0 4.0 SE 2.00 20.0 SSE 74.2 74.2 74.2 29.654 0.00 0.00 0.000 0.192 79.8 38 51.9 78.4 700 1 100.0 30
5/05/26 6:30p 73.5 74.3 73.5 54 55.8 3.0 SE 1.50 13.0 SSE 73.5 73.4 73.4 29.676 0.00 0.00 0.000 0.177 79.4 38 51.6 78.0 700 1 100.0 30
5/05/26 7:00p 71.7 73.8 71.7 59 56.6 2.0 NW 1.00 5.0 N 71.7 71.4 71.4 29.704 0.00 0.00 0.000 0.140 79.2 39 52.1 77.9 702 1 100.0 30
5/05/26 7:30p 69.9 71.7 69.9 61 55.8 1.0 NW 0.50 4.0 NW 69.9 69.4 69.4 29.730 0.00 0.00 0.000 0.102 79.0 39 51.9 77.7 702 1 100.0 30
5/05/26 8:00p 69.0 69.9 68.9 66 57.2 0.0 WNW 0.00 2.0 WNW 69.0 69.1 69.1 29.742 0.00 0.00 0.000 0.083 78.9 40 52.5 77.7 700 1 100.0 30
5/05/26 8:30p 66.2 68.9 66.2 69 55.7 1.0 SSE 0.50 5.0 SSE 66.2 66.1 66.1 29.741 0.00 0.00 0.000 0.025 78.6 40 52.3 77.4 701 1 100.0 30
5/05/26 9:00p 65.7 66.2 65.4 73 56.8 1.0 SE 0.50 6.0 SSE 65.7 65.8 65.8 29.749 0.00 0.00 0.000 0.015 78.5 40 52.2 77.3 699 1 100.0 30
5/05/26 9:30p 63.8 65.8 63.8 77 56.4 2.0 SSE 1.00 7.0 SSE 63.8 63.9 63.9 29.753 0.00 0.00 0.025 0.000 78.2 41 52.6 77.1 700 1 100.0 30
5/05/26 10:00p 65.4 65.4 63.8 71 55.7 1.0 W 0.50 4.0 W 65.4 65.3 65.3 29.764 0.00 0.00 0.000 0.008 78.0 41 52.4 76.9 699 1 100.0 30
5/05/26 10:30p 65.2 65.6 65.2 69 54.8 1.0 ESE 0.50 4.0 SSE 65.2 64.9 64.9 29.757 0.00 0.00 0.000 0.004 77.8 41 52.2 76.7 701 1 100.0 30
5/05/26 11:00p 64.9 65.2 64.9 69 54.5 1.0 W 0.50 6.0 W 64.9 64.5 64.5 29.761 0.00 0.00 0.002 0.000 77.6 41 52.0 76.5 701 1 100.0 30
5/05/26 11:30p 64.0 64.9 64.0 69 53.6 1.0 SE 0.50 7.0 SSE 64.0 63.5 63.5 29.767 0.00 0.00 0.021 0.000 77.3 41 51.8 76.3 700 1 100.0 30
5/06/26 12:00a 63.1 64.1 63.1 71 53.5 1.0 SE 0.50 6.0 ESE 63.1 62.7 62.7 29.763 0.00 0.00 0.040 0.000 77.1 41 51.6 76.1 698 1 100.0 30
5/06/26 12:30a 62.3 63.1 62.3 71 52.8 0.0 W 0.00 4.0 SSE 62.3 61.7 61.7 29.775 0.00 0.00 0.056 0.000 76.9 41 51.4 75.9 699 1 100.0 30
5/06/26 1:00a 61.5 62.3 61.5 73 52.8 1.0 SSE 0.50 6.0 SSE 61.5 61.0 61.0 29.765 0.00 0.00 0.073 0.000 76.6 41 51.1 75.6 702 1 100.0 30
5/06/26 1:30a 60.7 61.5 60.7 74 52.4 0.0 W 0.00 3.0 ESE 60.7 60.2 60.2 29.765 0.00 0.00 0.090 0.000 76.4 41 51.0 75.4 699 1 100.0 30
5/06/26 2:00a 60.4 60.7 60.4 76 52.8 1.0 SW 0.50 4.0 WSW 60.4 60.0 60.0 29.762 0.00 0.00 0.096 0.000 76.2 41 50.8 75.2 699 1 100.0 30
5/06/26 2:30a 59.7 60.4 59.7 77 52.5 0.0 NW 0.00 2.0 NW 59.7 59.3 59.3 29.763 0.00 0.00 0.110 0.000 76.0 41 50.6 75.0 698 1 100.0 30
5/06/26 3:00a 59.1 59.6 59.1 79 52.6 0.0 W 0.00 2.0 SW 59.1 58.8 58.8 29.763 0.00 0.00 0.123 0.000 75.7 41 50.3 74.7 700 1 100.0 30
5/06/26 3:30a 57.2 59.1 57.2 83 52.1 0.0 WSW 0.00 2.0 W 57.2 57.0 57.0 29.761 0.00 0.00 0.162 0.000 75.4 41 50.1 74.4 701 1 100.0 30
5/06/26 4:00a 55.7 57.2 55.7 86 51.6 0.0 N 0.00 1.0 N 55.7 55.6 55.6 29.756 0.00 0.00 0.194 0.000 75.1 41 49.8 74.1 699 1 100.0 30
5/06/26 4:30a 54.9 55.7 54.9 88 51.4 0.0 N 0.00 1.0 N 54.9 54.9 54.9 29.754 0.00 0.00 0.210 0.000 74.8 41 49.5 73.8 698 1 100.0 30
5/06/26 5:00a 55.4 55.4 54.9 88 51.9 0.0 N 0.00 2.0 NNE 55.4 55.4 55.4 29.746 0.00 0.00 0.200 0.000 74.6 41 49.3 73.6 700 1 100.0 30
5/06/26 5:30a 56.6 56.6 55.3 87 52.8 3.0 SSE 1.50 11.0 SE 56.6 56.5 56.5 29.746 0.00 0.00 0.175 0.000 74.4 41 49.2 73.3 703 1 100.0 30
5/06/26 6:00a 56.6 56.8 56.5 88 53.1 7.0 SSE 3.50 12.0 SSE 55.1 56.6 55.1 29.750 0.00 0.00 0.175 0.000 74.1 41 48.9 73.0 698 1 100.0 30
5/06/26 6:30a 56.5 56.6 56.4 89 53.3 8.0 SSE 4.00 13.0 SSE 54.3 56.5 54.3 29.750 0.00 0.00 0.177 0.000 74.1 42 49.5 73.1 698 1 100.0 30
5/06/26 7:00a 57.0 57.0 56.5 89 53.8 7.0 SSE 3.50 14.0 SSE 55.6 57.0 55.6 29.759 0.00 0.00 0.167 0.000 73.8 42 49.3 72.8 699 1 100.0 30
5/06/26 7:30a 57.5 57.5 57.0 89 54.3 6.0 SSE 3.00 10.0 SSE 56.6 57.6 56.7 29.744 0.00 0.00 0.156 0.000 73.7 42 49.2 72.7 697 1 100.0 30